Skip Page Navigation
NASA JPL Caltech
NASA Logo - Jet Propulsion Laboratory + View the NASA Portal
+ Center for Near-Earth Object Studies
JPL Home Earth Solar System Stars & Galaxies Technology
JPL Solar System Dynamics
BODIES ORBITS EPHEMERIDES TOOLS PHYSICAL DATA DISCOVERY FAQ SITE MAP
IMPORTANT: The SSD Announcement email list is now available. Major changes are coming in the near future, including possible hostname and/or URL changes. To be notified of such changes, subscribe to this email list.

Please visit this page for more details.


JPL Small-Body Database Browser
Search: [ help ]  
351848 (2006 RZ10)
Classification: Main-belt Asteroid          SPK-ID: 2351848
Ephemeris | Orbit Diagram | Orbital Elements | Mission Design | Physical Parameters | Discovery Circumstances | Close-Approach Data ]

[ show orbit diagram ]
Orbital Elements at Epoch 2458600.5 (2019-Apr-27.0) TDB
Reference: JPL 11 (heliocentric ecliptic J2000)
 Element Value Uncertainty (1-sigma)   Units 
e .06174581798620721 8.1491e-08  
a 2.745757057698726 4.5161e-08 au
q 2.576218042179717 2.3525e-07 au
i 4.607411764962588 7.2436e-06 deg
node 290.2673282084522 0.00010585 deg
peri 29.08730167836399 0.00012217 deg
M 307.4898792510576 5.9784e-05 deg
tp 2458842.899715597417
(2019-Dec-25.39971560)
0.00027565 TDB
period 1661.849113474525
4.55
4.1e-05
1.123e-07
d
yr
n .216626164843165 5.3445e-09 deg/d
Q 2.915296073217735 4.795e-08 au
  Orbit Determination Parameters
   # obs. used (total)      165  
   data-arc span      6112 days (16.73 yr)  
   first obs. used      2001-07-21  
   last obs. used      2018-04-15  
   planetary ephem.      DE431  
   SB-pert. ephem.      SB431-N16  
   condition code      0  
   norm. resid. RMS      .61739  
   source      ORB  
   producer      Otto Matic  
   solution date      2019-Jul-14 07:46:20  

Additional Information
 Earth MOID = 1.56309 au 
 Jupiter MOID = 2.27576 au 
 T_jup = 3.340 
[ show covariance matrix ]

Ephemeris | Orbit Diagram | Orbital Elements | Mission Design | Physical Parameters | Discovery Circumstances | Close-Approach Data ]

Physical Parameter Table
Parameter Symbol Value Units Sigma Reference Notes
absolute magnitude H 16.3   n/a MPO437488  

351848 (2006 RZ10)          Discovered 2006-Sep-12 by CSS at Catalina
Reference: 20130127/Numbers.arcLast Updated: 2013-01-31

[ show close-approach data ]
Ephemeris | Orbit Diagram | Orbital Elements | Mission Design | Physical Parameters | Discovery Circumstances | Close-Approach Data ]
ABOUT SSD CREDITS/AWARDS PRIVACY/COPYRIGHT GLOSSARY LINKS
FirstGov
(server date/time)  
NASA Home Page
Site Manager:   Ryan S. Park
Webmaster  Alan B. Chamberlin